• en Belgique
  • Liste des pays
  • À 7 jours
  • Température de l'eau
  • Carte satellitaire
  • Carte météo
  • Widgets météo
  • user-avatar
    Se connecter

    Météo par heure à Kalgoorlie

    Ce jour, 21 Juillet, Vendredi

    Heure Température Précipitation Vent Pression Humidité
    00:00 +12°C° 0 mm 5 m/s 728 mmHg 67%
    01:00 +12°C° 0 mm 5 m/s 728 mmHg 71%
    02:00 +11°C° 0 mm 4 m/s 728 mmHg 74%
    03:00 +11°C° 0 mm 4 m/s 728 mmHg 78%
    04:00 +10°C° 0 mm 4 m/s 728 mmHg 82%
    05:00 +10°C° 0 mm 4 m/s 728 mmHg 85%
    06:00 +10°C° 0 mm 4 m/s 729 mmHg 85%
    07:00 +10°C° 0 mm 4 m/s 729 mmHg 85%
    08:00 +10°C° 0 mm 5 m/s 729 mmHg 84%
    09:00 +12°C° 0 mm 5 m/s 730 mmHg 75%
    10:00 +14°C° 0 mm 6 m/s 730 mmHg 66%
    11:00 +16°C° 0 mm 6 m/s 730 mmHg 57%
    12:00 +16°C° 0 mm 7 m/s 729 mmHg 56%
    13:00 +16°C° 0 mm 7 m/s 729 mmHg 55%
    14:00 +16°C° 0 mm 7 m/s 729 mmHg 53%
    15:00 +16°C° 0 mm 7 m/s 729 mmHg 54%
    16:00 +15°C° 0 mm 7 m/s 729 mmHg 54%
    17:00 +15°C° 0 mm 6 m/s 729 mmHg 54%
    18:00 +15°C° 0 mm 6 m/s 729 mmHg 56%
    19:00 +14°C° 0 mm 6 m/s 730 mmHg 58%
    20:00 +13°C° 0 mm 6 m/s 730 mmHg 59%
    21:00 +13°C° 0 mm 5 m/s 730 mmHg 62%
    22:00 +12°C° 0 mm 5 m/s 730 mmHg 64%
    23:00 +12°C° 0 mm 4 m/s 730 mmHg 66%

    Demain, 22 Juillet, Samedi

    Heure Température Précipitation Vent Pression Humidité
    00:00 +11°C° 0 mm 4 m/s 730 mmHg 70%
    01:00 +11°C° 0 mm 4 m/s 730 mmHg 74%
    02:00 +10°C° 0 mm 4 m/s 730 mmHg 78%
    03:00 +10°C° 0 mm 4 m/s 730 mmHg 80%
    04:00 +8°C° 0 mm 4 m/s 730 mmHg 83%
    05:00 +8°C° 0 mm 4 m/s 730 mmHg 86%
    06:00 +8°C° 0 mm 4 m/s 731 mmHg 84%
    07:00 +9°C° 0 mm 5 m/s 731 mmHg 82%
    08:00 +9°C° 0 mm 5 m/s 731 mmHg 81%
    09:00 +12°C° 0 mm 5 m/s 731 mmHg 74%
    10:00 +14°C° 0 mm 5 m/s 731 mmHg 67%
    11:00 +16°C° 0 mm 5 m/s 731 mmHg 59%
    12:00 +16°C° 0,1 mm 5 m/s 731 mmHg 59%
    13:00 +16°C° 0,1 mm 6 m/s 731 mmHg 59%
    14:00 +16°C° 0,1 mm 6 m/s 730 mmHg 58%
    15:00 +16°C° 0,1 mm 6 m/s 730 mmHg 61%
    16:00 +15°C° 0,1 mm 5 m/s 731 mmHg 63%
    17:00 +15°C° 0,1 mm 5 m/s 731 mmHg 66%
    18:00 +14°C° 0 mm 4 m/s 731 mmHg 70%
    19:00 +13°C° 0 mm 4 m/s 731 mmHg 75%
    20:00 +12°C° 0 mm 3 m/s 732 mmHg 79%
    21:00 +11°C° 0 mm 3 m/s 732 mmHg 81%
    22:00 +11°C° 0 mm 3 m/s 732 mmHg 83%
    23:00 +10°C° 0 mm 2 m/s 732 mmHg 84%

    Après-demain, 23 Juillet, Dimanche

    Heure Température Précipitation Vent Pression Humidité
    00:00 +10°C° 0 mm 2 m/s 732 mmHg 86%
    01:00 +10°C° 0 mm 2 m/s 732 mmHg 87%
    02:00 +9°C° 0 mm 2 m/s 732 mmHg 88%
    03:00 +9°C° 0 mm 2 m/s 732 mmHg 88%
    04:00 +9°C° 0 mm 2 m/s 732 mmHg 89%
    05:00 +8°C° 0 mm 2 m/s 732 mmHg 89%
    06:00 +9°C° 0 mm 2 m/s 732 mmHg 86%
    07:00 +9°C° 0 mm 2 m/s 732 mmHg 83%
    08:00 +10°C° 0 mm 2 m/s 732 mmHg 80%
    09:00 +12°C° 0 mm 3 m/s 732 mmHg 73%
    10:00 +13°C° 0 mm 4 m/s 732 mmHg 65%
    11:00 +15°C° 0 mm 5 m/s 732 mmHg 57%
    12:00 +16°C° 0 mm 5 m/s 732 mmHg 55%
    13:00 +16°C° 0 mm 6 m/s 731 mmHg 52%
    14:00 +17°C° 0 mm 6 m/s 730 mmHg 49%
    15:00 +17°C° 0 mm 6 m/s 730 mmHg 49%
    16:00 +16°C° 0 mm 5 m/s 730 mmHg 48%
    17:00 +16°C° 0 mm 5 m/s 730 mmHg 48%
    18:00 +15°C° 0 mm 4 m/s 730 mmHg 50%
    19:00 +14°C° 0 mm 4 m/s 730 mmHg 53%
    20:00 +13°C° 0 mm 4 m/s 731 mmHg 55%
    21:00 +13°C° 0 mm 3 m/s 731 mmHg 56%
    22:00 +12°C° 0 mm 3 m/s 731 mmHg 58%
    23:00 +11°C° 0 mm 3 m/s 731 mmHg 59%

    24 Juillet, Lundi

    Heure Température Précipitation Vent Pression Humidité
    00:00 +11°C° 0 mm 3 m/s 731 mmHg 63%
    01:00 +11°C° 0 mm 3 m/s 731 mmHg 67%
    02:00 +10°C° 0 mm 3 m/s 731 mmHg 70%
    03:00 +10°C° 0 mm 3 m/s 731 mmHg 76%
    04:00 +9°C° 0 mm 3 m/s 731 mmHg 81%
    05:00 +9°C° 0 mm 3 m/s 731 mmHg 86%
    06:00 +9°C° 0 mm 3 m/s 731 mmHg 86%
    07:00 +10°C° 0 mm 3 m/s 732 mmHg 85%
    08:00 +10°C° 0 mm 3 m/s 732 mmHg 85%
    09:00 +12°C° 0 mm 3 m/s 732 mmHg 77%
    10:00 +14°C° 0 mm 4 m/s 733 mmHg 68%
    11:00 +15°C° 0 mm 4 m/s 733 mmHg 60%
    12:00 +17°C° 0 mm 4 m/s 732 mmHg 59%
    13:00 +17°C° 0 mm 4 m/s 732 mmHg 57%
    14:00 +17°C° 0 mm 4 m/s 731 mmHg 56%
    15:00 +17°C° 0 mm 4 m/s 731 mmHg 57%
    16:00 +15°C° 0 mm 4 m/s 731 mmHg 57%
    17:00 +16°C° 0 mm 3 m/s 732 mmHg 57%
    18:00 +16°C° 0 mm 3 m/s 732 mmHg 58%
    19:00 +14°C° 0 mm 3 m/s 733 mmHg 58%
    20:00 +14°C° 0 mm 3 m/s 733 mmHg 59%
    21:00 +13°C° 0 mm 3 m/s 733 mmHg 61%
    22:00 +13°C° 0 mm 2 m/s 733 mmHg 63%
    23:00 +12°C° 0 mm 2 m/s 734 mmHg 66%

    25 Juillet, Mardi

    Heure Température Précipitation Vent Pression Humidité
    00:00 +12°C° 0 mm 2 m/s 734 mmHg 67%
    01:00 +10°C° 0 mm 3 m/s 734 mmHg 69%
    02:00 +10°C° 0 mm 3 m/s 734 mmHg 70%
    03:00 +9°C° 0 mm 3 m/s 734 mmHg 72%
    04:00 +9°C° 0 mm 2 m/s 734 mmHg 74%
    05:00 +8°C° 0 mm 2 m/s 734 mmHg 75%
    06:00 +9°C° 0 mm 2 m/s 734 mmHg 73%
    07:00 +9°C° 0 mm 2 m/s 735 mmHg 71%
    08:00 +11°C° 0 mm 1 m/s 735 mmHg 68%
    09:00 +13°C° 0 mm 1 m/s 735 mmHg 61%
    10:00 +14°C° 0 mm 1 m/s 735 mmHg 55%
    11:00 +16°C° 0 mm 1 m/s 735 mmHg 48%
    12:00 +17°C° 0 mm 2 m/s 735 mmHg 44%
    13:00 +18°C° 0 mm 2 m/s 734 mmHg 40%
    14:00 +19°C° 0 mm 2 m/s 733 mmHg 36%
    15:00 +19°C° 0 mm 2 m/s 733 mmHg 38%
    16:00 +18°C° 0 mm 2 m/s 733 mmHg 40%
    17:00 +19°C° 0 mm 1 m/s 733 mmHg 42%
    18:00 +17°C° 0 mm 2 m/s 734 mmHg 44%
    19:00 +16°C° 0 mm 2 m/s 734 mmHg 46%
    20:00 +15°C° 0 mm 2 m/s 734 mmHg 47%
    21:00 +15°C° 0 mm 2 m/s 734 mmHg 48%
    22:00 +14°C° 0 mm 3 m/s 734 mmHg 49%
    23:00 +13°C° 0 mm 3 m/s 734 mmHg 49%

    26 Juillet, Mercredi

    Heure Température Précipitation Vent Pression Humidité
    00:00 +13°C° 0 mm 3 m/s 734 mmHg 51%
    01:00 +13°C° 0 mm 3 m/s 733 mmHg 53%
    02:00 +12°C° 0 mm 4 m/s 733 mmHg 55%
    03:00 +12°C° 0 mm 4 m/s 733 mmHg 56%
    04:00 +12°C° 0 mm 4 m/s 733 mmHg 58%
    05:00 +11°C° 0 mm 4 m/s 733 mmHg 60%
    06:00 +12°C° 0 mm 4 m/s 733 mmHg 59%
    07:00 +12°C° 0 mm 5 m/s 733 mmHg 57%
    08:00 +13°C° 0 mm 5 m/s 733 mmHg 56%
    09:00 +15°C° 0 mm 5 m/s 733 mmHg 50%
    10:00 +17°C° 0 mm 5 m/s 733 mmHg 43%
    11:00 +21°C° 0 mm 6 m/s 732 mmHg 37%
    12:00 +22°C° 0 mm 6 m/s 732 mmHg 34%
    13:00 +24°C° 0 mm 6 m/s 731 mmHg 31%
    14:00 +26°C° 0 mm 6 m/s 730 mmHg 28%
    15:00 +25°C° 0 mm 5 m/s 730 mmHg 29%
    16:00 +23°C° 0 mm 4 m/s 730 mmHg 29%
    17:00 +23°C° 0 mm 4 m/s 730 mmHg 30%
    18:00 +22°C° 0 mm 4 m/s 730 mmHg 31%
    19:00 +20°C° 0 mm 4 m/s 731 mmHg 33%
    20:00 +19°C° 0 mm 4 m/s 731 mmHg 34%
    21:00 +19°C° 0 mm 4 m/s 731 mmHg 35%
    22:00 +18°C° 0 mm 3 m/s 731 mmHg 36%
    23:00 +17°C° 0 mm 3 m/s 731 mmHg 38%
    Voir plus